User: anonymous   Login
Location: Alvis C Story Elementary School
(33.0968°N, 96.6364°W)
Time: 15:47:23
(UTC+00:00)
Language:

H-2A R/B - Orbit

View from above orbital plane
View from above orbital plane
View from above satellite
View from above satellite

Ground track
Ground track

The orbit data is extracted from the following two-line orbital elements,

1 38341U 12025E   22146.16719235  .00001598  00000-0  19103-3 0  9998
2 38341  98.5079 359.9545 0055887 117.7719 242.9176 14.84680723542426
Epoch (UTC): 26 May 2022 04:00:45
Eccentricity: 0.0055887
inclination: 98.5079°
perigee height: 575 km
apogee height: 653 km
right ascension of ascending node: 359.9545°
argument of perigee: 117.7719°
revolutions per day: 14.84680723
mean anomaly at epoch: 242.9176°
orbit number at epoch: 54242

The dashed part of the orbit path shows where the satellite is in the earth's shadow,  

DLR